Location: B�rgermoos
(47.6500°N, 9.0667°E)
Time: 03:47:49
(UTC+00:00)

Vanguard 2 Rocket - Pass Details

Date: 08 August 2021
Orbit: 556 x 3323 km, 32.9° (Epoch: 27 September)

Event Time Altitude Azimuth Distance (km) Brightness Sun altitude
Rises 05:31:35 0° 234° (SW) 3,641 9.4 12.2°
Reaches altitude 10° 05:35:57 10° 208° (SSW) 2,265 8.6 12.9°
Maximum altitude 05:38:12 13° 181° (S) 1,893 8.5 13.3°
Drops below altitude 10° 05:40:12 10° 153° (SSE) 1,960 8.9 13.6°
Sets 05:43:24 0° 122° (ESE) 2,738 10.2 14.1°
